This is the latest recevied weather packets stored in our database for station/object WX5RP. If no packets are shown the sender has not sent any weather packets the latest 10 day(s).
| Time | Temp. | Humidity | Pressure | Rain* | Wind** | Luminosity | Snow |
|---|---|---|---|---|---|---|---|
| 1787911815 | 6.67° C | 72% | 1019.7 hPa | 0 mm | - | 0 W/m² | - |
| 1787911217 | 7.22° C | 67% | 1019.7 hPa | 0 mm | - | 0 W/m² | - |
| 1787910617 | 7.78° C | 66% | 1019.8 hPa | 0 mm | - | 0 W/m² | - |
| 1787910017 | 8.33° C | 67% | 1020 hPa | 0 mm | - | 0 W/m² | - |
| 1787909417 | 8.89° C | 71% | 1020 hPa | 0 mm | - | 0 W/m² | - |
| 1787908817 | 8.33° C | 70% | 1020 hPa | 0 mm | - | 0 W/m² | - |
| 1787908217 | 8.33° C | 69% | 1019.9 hPa | 0 mm | - | 0 W/m² | - |
| 1787907617 | 8.33° C | 69% | 1020 hPa | 0 mm | - | 0 W/m² | - |
| 1787907017 | 8.89° C | 67% | 1020 hPa | 0 mm | - | 0 W/m² | - |
| 1787906417 | 8.33° C | 68% | 1019.8 hPa | 0 mm | - | 0 W/m² | - |
| 1787905817 | 8.33° C | 67% | 1020.1 hPa | 0 mm | - | 0 W/m² | - |
| 1787905216 | 8.89° C | 64% | 1019.5 hPa | 0 mm | - | 0 W/m² | - |
| 1787904617 | 9.44° C | 62% | 1020.1 hPa | 0 mm | - | 0 W/m² | - |
| 1787904016 | 10° C | 63% | 1020.1 hPa | 0 mm | - | 0 W/m² | - |
| 1787903416 | 10° C | 60% | 1019.5 hPa | 0 mm | - | 0 W/m² | - |
| 1787902817 | 10.56° C | 61% | 1019.4 hPa | 0 mm | - | 0 W/m² | - |
| 1787902217 | 11.11° C | 57% | 1019.7 hPa | 0 mm | - | 0 W/m² | - |
| 1787901617 | 11.11° C | 55% | 1019.3 hPa | 0 mm | - | 0 W/m² | - |
| 1787901016 | 10.56° C | 57% | 1019.9 hPa | 0 mm | - | 0 W/m² | - |
| 1787900416 | 11.67° C | 56% | 1020.2 hPa | 0 mm | - | 0 W/m² | - |
| 1787899816 | 12.22° C | 48% | 1019.9 hPa | 0 mm | - | 0 W/m² | - |
| 1787899219 | 12.78° C | 50% | 1019.5 hPa | 0 mm | - | 0 W/m² | - |
| 1787898616 | 14.44° C | 44% | 1019.8 hPa | 0 mm | - | 0 W/m² | - |
| 1787898016 | 15.56° C | 37% | 1019.3 hPa | 0 mm | - | 0 W/m² | - |
| 1787897417 | 15.56° C | 36% | 1020.1 hPa | 0 mm | - | 0 W/m² | - |
* Rain latest hour (hover to see other rain measurements)
** Current wind speed in m/s (hover to see current wind gust speed)